Time,TemperatureF,DewpointF,PressureIn,WindDirection,WindDirectionDegrees,WindSpeedMPH,WindSpeedGustMPH,Humidity,HourlyPrecipIn,Conditions,Clouds,dailyrainin,SoftwareType,DateUTC
2013-03-05 00:02:00,30.0,17.0,-100.00,ESE,107,5.0,8.0,60,0.00,,,-99.99,,2013-03-05 08:02:00,
2013-03-05 00:11:00,29.0,18.0,-100.00,ESE,109,6.0,8.0,62,0.00,,,-99.99,,2013-03-05 08:11:00,
2013-03-05 00:21:00,29.0,18.0,-100.00,ESE,109,6.0,8.0,62,0.00,,,-99.99,,2013-03-05 08:21:00,
2013-03-05 00:31:00,29.0,18.0,-100.00,ESE,109,6.0,8.0,62,0.00,,,-99.99,,2013-03-05 08:31:00,
2013-03-05 00:41:00,29.0,17.0,-100.00,ESE,107,5.0,7.0,60,0.00,,,-99.99,,2013-03-05 08:41:00,
2013-03-05 00:52:00,29.0,17.0,-100.00,ESE,107,5.0,7.0,60,0.00,,,-99.99,,2013-03-05 08:52:00,
2013-03-05 01:01:00,29.0,17.0,-100.00,ESE,107,5.0,7.0,60,0.00,,,-99.99,,2013-03-05 09:01:00,
2013-03-05 01:11:00,28.0,17.0,-100.00,ESE,110,6.0,8.0,63,0.00,,,-99.99,,2013-03-05 09:11:00,
2013-03-05 01:21:00,29.0,17.0,-100.00,ESE,104,7.0,9.0,63,0.00,,,-99.99,,2013-03-05 09:21:00,
2013-03-05 01:31:00,29.0,17.0,-100.00,ESE,104,7.0,9.0,63,0.00,,,-99.99,,2013-03-05 09:31:00,
2013-03-05 01:42:00,29.0,17.0,-100.00,ESE,104,7.0,9.0,63,0.00,,,-99.99,,2013-03-05 09:42:00,
2013-03-05 01:52:00,28.0,18.0,-100.00,ESE,114,7.0,10.0,64,0.00,,,-99.99,,2013-03-05 09:52:00,
2013-03-05 02:01:00,28.0,18.0,-100.00,ESE,114,7.0,10.0,64,0.00,,,-99.99,,2013-03-05 10:01:00,
2013-03-05 02:11:00,28.0,18.0,-100.00,ESE,110,7.0,9.0,65,0.00,,,-99.99,,2013-03-05 10:11:00,
2013-03-05 02:21:00,27.0,18.0,-100.00,ESE,119,7.0,9.0,67,0.00,,,-99.99,,2013-03-05 10:21:00,
2013-03-05 02:32:00,27.0,18.0,-100.00,ESE,119,7.0,9.0,67,0.00,,,-99.99,,2013-03-05 10:32:00,
2013-03-05 02:41:00,27.0,18.0,-100.00,ESE,119,7.0,9.0,67,0.00,,,-99.99,,2013-03-05 10:41:00,
2013-03-05 02:52:00,28.0,18.0,-100.00,ESE,113,7.0,9.0,66,0.00,,,-99.99,,2013-03-05 10:52:00,
2013-03-05 03:01:00,28.0,18.0,-100.00,ESE,113,7.0,9.0,66,0.00,,,-99.99,,2013-03-05 11:01:00,
2013-03-05 03:11:00,27.0,18.0,-100.00,ESE,116,7.0,9.0,67,0.00,,,-99.99,,2013-03-05 11:11:00,
2013-03-05 03:22:00,27.0,18.0,-100.00,ESE,116,7.0,9.0,67,0.00,,,-99.99,,2013-03-05 11:22:00,
2013-03-05 03:32:00,27.0,18.0,-100.00,ESE,116,7.0,9.0,67,0.00,,,-99.99,,2013-03-05 11:32:00,
2013-03-05 03:41:00,27.0,18.0,-100.00,East,93,6.0,9.0,67,0.00,,,-99.99,,2013-03-05 11:41:00,
2013-03-05 03:52:00,27.0,18.0,-100.00,East,93,6.0,9.0,67,0.00,,,-99.99,,2013-03-05 11:52:00,
2013-03-05 04:02:00,27.0,18.0,-100.00,East,93,6.0,9.0,67,0.00,,,-99.99,,2013-03-05 12:02:00,
2013-03-05 04:11:00,27.0,17.0,-100.00,ESE,106,8.0,10.0,66,0.00,,,-99.99,,2013-03-05 12:11:00,
2013-03-05 04:22:00,27.0,17.0,-100.00,ESE,106,8.0,10.0,66,0.00,,,-99.99,,2013-03-05 12:22:00,
2013-03-05 04:32:00,27.0,17.0,-100.00,ESE,106,8.0,10.0,66,0.00,,,-99.99,,2013-03-05 12:32:00,
2013-03-05 04:42:00,27.0,17.0,-100.00,East,95,7.0,10.0,67,0.00,,,-99.99,,2013-03-05 12:42:00,
2013-03-05 04:52:00,27.0,17.0,-100.00,East,100,7.0,10.0,68,0.00,,,-99.99,,2013-03-05 12:52:00,
2013-03-05 05:02:00,27.0,17.0,-100.00,East,100,7.0,10.0,68,0.00,,,-99.99,,2013-03-05 13:02:00,
2013-03-05 05:11:00,27.0,17.0,-100.00,East,100,7.0,10.0,68,0.00,,,-99.99,,2013-03-05 13:11:00,
2013-03-05 05:21:00,27.0,18.0,-100.00,ESE,106,7.0,9.0,67,0.00,,,-99.99,,2013-03-05 13:21:00,
2013-03-05 05:31:00,27.0,18.0,-100.00,ESE,106,7.0,9.0,67,0.00,,,-99.99,,2013-03-05 13:31:00,
2013-03-05 05:42:00,27.0,17.0,-100.00,ESE,107,8.0,10.0,67,0.00,,,-99.99,,2013-03-05 13:42:00,
2013-03-05 05:52:00,27.0,17.0,-100.00,ESE,107,8.0,10.0,67,0.00,,,-99.99,,2013-03-05 13:52:00,
2013-03-05 06:02:00,27.0,17.0,-100.00,ESE,107,8.0,10.0,67,0.00,,,-99.99,,2013-03-05 14:02:00,
2013-03-05 06:11:00,27.0,17.0,-100.00,East,97,6.0,7.0,67,0.00,,,-99.99,,2013-03-05 14:11:00,
2013-03-05 06:21:00,27.0,17.0,-100.00,East,97,6.0,7.0,67,0.00,,,-99.99,,2013-03-05 14:21:00,
2013-03-05 06:31:00,27.0,17.0,-100.00,East,97,6.0,7.0,67,0.00,,,-99.99,,2013-03-05 14:31:00,
2013-03-05 06:42:00,27.0,17.0,-100.00,ESE,106,6.0,8.0,67,0.00,,,-99.99,,2013-03-05 14:42:00,
2013-03-05 06:52:00,27.0,17.0,-100.00,ESE,106,6.0,8.0,67,0.00,,,-99.99,,2013-03-05 14:52:00,
2013-03-05 07:01:00,27.0,17.0,-100.00,ESE,106,6.0,8.0,67,0.00,,,-99.99,,2013-03-05 15:01:00,
2013-03-05 07:11:00,27.0,17.0,-100.00,ESE,106,6.0,8.0,67,0.00,,,-99.99,,2013-03-05 15:11:00,
2013-03-05 07:21:00,27.0,17.0,-100.00,East,97,6.0,9.0,66,0.00,,,-99.99,,2013-03-05 15:21:00,
2013-03-05 07:32:00,27.0,17.0,-100.00,East,97,6.0,9.0,66,0.00,,,-99.99,,2013-03-05 15:32:00,
2013-03-05 07:42:00,27.0,17.0,-100.00,ESE,109,7.0,9.0,66,0.00,,,-99.99,,2013-03-05 15:42:00,
2013-03-05 07:52:00,28.0,17.0,-100.00,ESE,117,6.0,9.0,65,0.00,,,-99.99,,2013-03-05 15:52:00,
2013-03-05 08:01:00,28.0,17.0,-100.00,ESE,117,6.0,9.0,65,0.00,,,-99.99,,2013-03-05 16:01:00,
2013-03-05 08:11:00,29.0,17.0,-100.00,SE,134,10.0,13.0,61,0.00,,,-99.99,,2013-03-05 16:11:00,
2013-03-05 08:21:00,29.0,17.0,-100.00,SE,134,10.0,13.0,61,0.00,,,-99.99,,2013-03-05 16:21:00,
2013-03-05 08:32:00,29.0,17.0,-100.00,SE,134,10.0,13.0,61,0.00,,,-99.99,,2013-03-05 16:32:00,
2013-03-05 08:41:00,29.0,18.0,-100.00,ESE,120,7.0,11.0,63,0.00,,,-99.99,,2013-03-05 16:41:00,
2013-03-05 08:52:00,29.0,18.0,-100.00,ESE,120,7.0,11.0,63,0.00,,,-99.99,,2013-03-05 16:52:00,
2013-03-05 09:01:00,29.0,18.0,-100.00,ESE,120,7.0,11.0,63,0.00,,,-99.99,,2013-03-05 17:01:00,
2013-03-05 09:11:00,29.0,18.0,-100.00,SE,126,7.0,10.0,62,0.00,,,-99.99,,2013-03-05 17:11:00,
2013-03-05 09:21:00,32.0,17.0,-100.00,SE,131,9.0,12.0,53,0.00,,,-99.99,,2013-03-05 17:21:00,
2013-03-05 09:32:00,32.0,17.0,-100.00,SE,131,9.0,12.0,53,0.00,,,-99.99,,2013-03-05 17:32:00,
2013-03-05 09:42:00,33.0,17.0,-100.00,SSE,160,9.0,13.0,51,0.00,,,-99.99,,2013-03-05 17:42:00,
2013-03-05 09:52:00,33.0,17.0,-100.00,SSE,160,9.0,13.0,51,0.00,,,-99.99,,2013-03-05 17:52:00,
2013-03-05 10:01:00,33.0,17.0,-100.00,SSE,160,9.0,13.0,51,0.00,,,-99.99,,2013-03-05 18:01:00,
2013-03-05 10:11:00,33.0,17.0,-100.00,SSE,154,6.0,9.0,53,0.00,,,-99.99,,2013-03-05 18:11:00,
2013-03-05 10:21:00,33.0,17.0,-100.00,SSE,154,6.0,9.0,53,0.00,,,-99.99,,2013-03-05 18:21:00,
2013-03-05 10:32:00,33.0,17.0,-100.00,SSE,154,6.0,9.0,53,0.00,,,-99.99,,2013-03-05 18:32:00,
2013-03-05 10:41:00,33.0,17.0,-100.00,SSE,167,7.0,10.0,51,0.00,,,-99.99,,2013-03-05 18:41:00,
2013-03-05 10:53:00,34.0,17.0,-100.00,SSE,155,7.0,9.0,50,0.00,,,-99.99,,2013-03-05 18:53:00,
2013-03-05 11:01:00,34.0,17.0,-100.00,SSE,155,7.0,9.0,50,0.00,,,-99.99,,2013-03-05 19:01:00,
2013-03-05 11:11:00,35.0,18.0,-100.00,SE,145,6.0,9.0,50,0.00,,,-99.99,,2013-03-05 19:11:00,
2013-03-05 11:21:00,36.0,18.0,-100.00,SSW,195,7.0,9.0,47,0.00,,,-99.99,,2013-03-05 19:21:00,
2013-03-05 11:31:00,36.0,18.0,-100.00,SSW,195,7.0,9.0,47,0.00,,,-99.99,,2013-03-05 19:31:00,
2013-03-05 11:42:00,38.0,19.0,-100.00,SSW,199,6.0,10.0,45,0.00,,,-99.99,,2013-03-05 19:42:00,
2013-03-05 11:52:00,38.0,19.0,-100.00,SSW,199,6.0,10.0,45,0.00,,,-99.99,,2013-03-05 19:52:00,
2013-03-05 12:01:00,38.0,19.0,-100.00,SSW,199,6.0,10.0,45,0.00,,,-99.99,,2013-03-05 20:01:00,
2013-03-05 12:11:00,39.0,16.0,-100.00,SW,226,7.0,11.0,39,0.00,,,-99.99,,2013-03-05 20:11:00,
2013-03-05 12:21:00,40.0,16.0,-100.00,WSW,250,6.0,9.0,37,0.00,,,-99.99,,2013-03-05 20:21:00,
2013-03-05 12:32:00,40.0,16.0,-100.00,WSW,250,6.0,9.0,37,0.00,,,-99.99,,2013-03-05 20:32:00,
2013-03-05 12:41:00,40.0,15.0,-100.00,West,272,4.0,5.0,35,0.00,,,-99.99,,2013-03-05 20:41:00,
2013-03-05 12:52:00,41.0,15.0,-100.00,SE,145,2.0,3.0,35,0.00,,,-99.99,,2013-03-05 20:52:00,
2013-03-05 13:01:00,41.0,15.0,-100.00,SE,145,2.0,3.0,35,0.00,,,-99.99,,2013-03-05 21:01:00,
2013-03-05 13:11:00,41.0,15.0,-100.00,SE,145,2.0,3.0,35,0.00,,,-99.99,,2013-03-05 21:11:00,
2013-03-05 13:21:00,36.0,21.0,-100.00,NNW,344,8.0,9.0,52,0.00,,,-99.99,,2013-03-05 21:21:00,
2013-03-05 13:31:00,36.0,21.0,-100.00,NNW,344,8.0,9.0,52,0.00,,,-99.99,,2013-03-05 21:31:00,
2013-03-05 13:41:00,36.0,21.0,-100.00,NNW,344,8.0,9.0,52,0.00,,,-99.99,,2013-03-05 21:41:00,
2013-03-05 13:52:00,37.0,20.0,-100.00,NW,316,4.0,5.0,50,0.00,,,-99.99,,2013-03-05 21:52:00,
2013-03-05 14:01:00,37.0,20.0,-100.00,NW,316,4.0,5.0,50,0.00,,,-99.99,,2013-03-05 22:01:00,
2013-03-05 14:11:00,37.0,21.0,-100.00,NW,306,6.0,8.0,51,0.00,,,-99.99,,2013-03-05 22:11:00,
2013-03-05 14:21:00,38.0,21.0,-100.00,NW,323,4.0,5.0,50,0.00,,,-99.99,,2013-03-05 22:21:00,
2013-03-05 14:32:00,38.0,21.0,-100.00,NW,323,4.0,5.0,50,0.00,,,-99.99,,2013-03-05 22:32:00,
2013-03-05 14:41:00,38.0,21.0,-100.00,NW,326,5.0,6.0,49,0.00,,,-99.99,,2013-03-05 22:41:00,
2013-03-05 14:52:00,39.0,21.0,-100.00,NW,323,5.0,6.0,49,0.00,,,-99.99,,2013-03-05 22:52:00,
2013-03-05 15:01:00,39.0,21.0,-100.00,NW,323,5.0,6.0,49,0.00,,,-99.99,,2013-03-05 23:01:00,
2013-03-05 15:11:00,38.0,22.0,-100.00,NNW,332,5.0,6.0,52,0.00,,,-99.99,,2013-03-05 23:11:00,
2013-03-05 15:21:00,38.0,22.0,-100.00,NNW,332,5.0,6.0,52,0.00,,,-99.99,,2013-03-05 23:21:00,
2013-03-05 15:32:00,38.0,22.0,-100.00,NNW,332,5.0,6.0,52,0.00,,,-99.99,,2013-03-05 23:32:00,
2013-03-05 15:41:00,38.0,22.0,-100.00,WNW,299,6.0,8.0,52,0.00,,,-99.99,,2013-03-05 23:41:00,
2013-03-05 15:52:00,37.0,21.0,-100.00,WNW,288,8.0,9.0,52,0.00,,,-99.99,,2013-03-05 23:52:00,
2013-03-05 16:01:00,37.0,21.0,-100.00,WNW,288,8.0,9.0,52,0.00,,,-99.99,,2013-03-06 00:01:00,
2013-03-05 16:11:00,37.0,21.0,-100.00,North,354,6.0,7.0,52,0.00,,,-99.99,,2013-03-06 00:11:00,
2013-03-05 16:21:00,37.0,22.0,-100.00,NNW,328,7.0,9.0,54,0.00,,,-99.99,,2013-03-06 00:21:00,
2013-03-05 16:32:00,37.0,22.0,-100.00,NNW,328,7.0,9.0,54,0.00,,,-99.99,,2013-03-06 00:32:00,
2013-03-05 16:41:00,36.0,21.0,-100.00,NW,319,6.0,7.0,52,0.00,,,-99.99,,2013-03-06 00:41:00,
2013-03-05 16:52:00,36.0,22.0,-100.00,NW,312,4.0,5.0,54,0.00,,,-99.99,,2013-03-06 00:52:00,
2013-03-05 17:01:00,36.0,22.0,-100.00,NW,312,4.0,5.0,54,0.00,,,-99.99,,2013-03-06 01:01:00,
2013-03-05 17:11:00,36.0,21.0,-100.00,NW,323,4.0,5.0,54,0.00,,,-99.99,,2013-03-06 01:11:00,
2013-03-05 17:21:00,35.0,25.0,-100.00,NW,320,3.0,4.0,65,0.00,,,-99.99,,2013-03-06 01:21:00,
2013-03-05 17:31:00,35.0,25.0,-100.00,NW,320,3.0,4.0,65,0.00,,,-99.99,,2013-03-06 01:31:00,
2013-03-05 17:41:00,36.0,23.0,-100.00,NW,323,4.0,6.0,59,0.00,,,-99.99,,2013-03-06 01:41:00,
2013-03-05 17:52:00,35.0,23.0,-100.00,North,357,3.0,3.0,61,0.00,,,-99.99,,2013-03-06 01:52:00,
2013-03-05 18:01:00,35.0,23.0,-100.00,North,357,3.0,3.0,61,0.00,,,-99.99,,2013-03-06 02:01:00,
2013-03-05 18:11:00,35.0,23.0,-100.00,NW,325,3.0,4.0,62,0.00,,,-99.99,,2013-03-06 02:11:00,
2013-03-05 18:21:00,35.0,22.0,-100.00,NW,320,2.0,3.0,61,0.00,,,-99.99,,2013-03-06 02:21:00,
2013-03-05 18:31:00,35.0,22.0,-100.00,NW,320,2.0,3.0,61,0.00,,,-99.99,,2013-03-06 02:31:00,
2013-03-05 18:41:00,34.0,22.0,-100.00,NW,318,1.0,2.0,61,0.00,,,-99.99,,2013-03-06 02:41:00,
2013-03-05 18:52:00,34.0,23.0,-100.00,NW,325,2.0,3.0,63,0.00,,,-99.99,,2013-03-06 02:52:00,
2013-03-05 19:01:00,34.0,23.0,-100.00,NW,325,2.0,3.0,63,0.00,,,-99.99,,2013-03-06 03:01:00,
2013-03-05 19:11:00,34.0,22.0,-100.00,North,357,2.0,2.0,60,0.00,,,-99.99,,2013-03-06 03:11:00,
2013-03-05 19:21:00,34.0,23.0,-100.00,NW,326,1.0,2.0,65,0.00,,,-99.99,,2013-03-06 03:21:00,
2013-03-05 19:31:00,34.0,23.0,-100.00,NW,326,1.0,2.0,65,0.00,,,-99.99,,2013-03-06 03:31:00,
2013-03-05 19:41:00,34.0,23.0,-100.00,WNW,291,0.0,1.0,63,0.00,,,-99.99,,2013-03-06 03:41:00,
2013-03-05 19:52:00,34.0,23.0,-100.00,WNW,291,0.0,1.0,63,0.00,,,-99.99,,2013-03-06 03:52:00,
2013-03-05 20:01:00,34.0,23.0,-100.00,WNW,291,0.0,1.0,63,0.00,,,-99.99,,2013-03-06 04:01:00,
2013-03-05 20:11:00,34.0,25.0,-100.00,SE,124,0.0,1.0,68,0.00,,,-99.99,,2013-03-06 04:11:00,
2013-03-05 20:21:00,34.0,23.0,-100.00,NNW,347,0.0,1.0,63,0.00,,,-99.99,,2013-03-06 04:21:00,
2013-03-05 20:32:00,34.0,23.0,-100.00,NNW,347,0.0,1.0,63,0.00,,,-99.99,,2013-03-06 04:32:00,
2013-03-05 20:41:00,33.0,25.0,-100.00,NW,326,2.0,2.0,69,0.00,,,-99.99,,2013-03-06 04:41:00,
2013-03-05 20:52:00,33.0,23.0,-100.00,NW,325,3.0,4.0,67,0.00,,,-99.99,,2013-03-06 04:52:00,
2013-03-05 21:01:00,33.0,23.0,-100.00,NW,325,3.0,4.0,67,0.00,,,-99.99,,2013-03-06 05:01:00,
2013-03-05 21:11:00,32.0,24.0,-100.00,NNW,332,3.0,4.0,70,0.00,,,-99.99,,2013-03-06 05:11:00,
2013-03-05 21:22:00,32.0,24.0,-100.00,NNW,332,3.0,4.0,70,0.00,,,-99.99,,2013-03-06 05:22:00,
2013-03-05 21:32:00,32.0,24.0,-100.00,NNW,332,3.0,4.0,70,0.00,,,-99.99,,2013-03-06 05:32:00,
2013-03-05 21:42:00,31.0,24.0,-100.00,North,353,1.0,2.0,73,0.00,,,-99.99,,2013-03-06 05:42:00,
2013-03-05 21:52:00,31.0,25.0,-100.00,NW,315,2.0,3.0,76,0.00,,,-99.99,,2013-03-06 05:52:00,
2013-03-05 22:01:00,31.0,25.0,-100.00,NW,315,2.0,3.0,76,0.00,,,-99.99,,2013-03-06 06:01:00,
2013-03-05 22:11:00,31.0,25.0,-100.00,NNW,344,1.0,2.0,77,0.00,,,-99.99,,2013-03-06 06:11:00,
2013-03-05 22:22:00,31.0,25.0,-100.00,WNW,291,1.0,2.0,79,0.00,,,-99.99,,2013-03-06 06:22:00,
2013-03-05 22:31:00,31.0,25.0,-100.00,WNW,291,1.0,2.0,79,0.00,,,-99.99,,2013-03-06 06:31:00,
2013-03-05 22:42:00,30.0,25.0,-100.00,NNW,333,2.0,2.0,80,0.00,,,-99.99,,2013-03-06 06:42:00,
2013-03-05 22:52:00,30.0,25.0,-100.00,NNW,333,2.0,2.0,80,0.00,,,-99.99,,2013-03-06 06:52:00,
2013-03-05 23:01:00,30.0,25.0,-100.00,NNW,333,2.0,2.0,80,0.00,,,-99.99,,2013-03-06 07:01:00,
2013-03-05 23:11:00,30.0,26.0,-100.00,NNW,330,1.0,2.0,84,0.00,,,-99.99,,2013-03-06 07:11:00,
2013-03-05 23:22:00,30.0,26.0,-100.00,NW,322,1.0,2.0,84,0.00,,,-99.99,,2013-03-06 07:22:00,
2013-03-05 23:31:00,30.0,26.0,-100.00,NW,322,1.0,2.0,84,0.00,,,-99.99,,2013-03-06 07:31:00,
2013-03-05 23:42:00,30.0,26.0,-100.00,NW,326,1.0,2.0,86,0.00,,,-99.99,,2013-03-06 07:42:00,
2013-03-05 23:52:00,30.0,26.0,-100.00,NW,326,1.0,2.0,86,0.00,,,-99.99,,2013-03-06 07:52:00,